Location: Tel Aviv
(32.0670°N, 34.7670°E)
Time: 02:05:11
(UTC+03:00)

AO-7 - Pass Details

Date: 16 September 2024
Orbit: 1440 x 1458 km, 102.0° (Epoch: 10 October)

Event Time Altitude Azimuth Distance (km) Brightness Sun altitude
Rises 18:55:06 0° 203° (SSW) 4,533 ? -2.9°
Reaches altitude 10° 18:58:48 10° 219° (SW) 3,561 ? -3.7°
Maximum altitude 19:04:37 21° 264° (W) 2,821 ? -4.9°
Drops below altitude 10° 19:10:29 10° 309° (NW) 3,581 ? -6.2°
Sets 19:14:17 0° 325° (NW) 4,566 ? -7.0°
